Portada
METAR-TAF:

METAR-TAF

Aeroports :

Japanese Ground Self Defense Force

Tokachi-Obihiro, Japó

latitud: 42-54N, longitud: 143-10E, altitud: 84 m

Observació

L'informe es va fer fa 5 hores i 40 minuts, a les 06:25 UTC
Vent 9 kt del Oest/Nord-Oest
Temperatura -3°C
Humitat 63%
Pressió 1016 hPa
Visibilitat 10 km o més
Escasses núvols a una alçada de 3000 ft
Núvols disperses a una alçada de 5000 ft
Cel ennuvolat a una alçada de 8000 ft

METAR: RJCT 210625Z 30009KT 9999 FEW030 SCT050 BKN080 M03/M09 Q1016 RMK 1CU030 3CU050 5AC080 A3001

Hora: 21:05 (12:05 UTC)


TAF: manca

Observacions i pronòstics meteorològics de més de 4000 aeroports (METAR i TAF).

Les estacions disponibles són els punts grocs i vermells al mapa.

Posi el ratolí al punt desitjat per veure el nom de l'estació.

Feu clic per veure les observacions i els pronòstics meteorològics.

Per canviar el mapa: feu clic els botons verds amb una creu de color negre per apropar; al botó verd amb un guió per allunyar la imatge; o en les fletxes verdes per a mapes adjacents.


METAR-TAF: